Weather History for North Bend, OR

Change the Weather History Date:

Monday, January 9, 2012

  Actual Average Record
Temperature  
Mean Temperature 44 °F 46 °F  
Max Temperature 50 °F 51 °F 68 °F (1941)
Min Temperature 37 °F 40 °F 20 °F (1949)
Degree Days  
Heating Degree Days 21 19  
Month to date heating degree days 169 173  
Since 1 July heating degree days 2200 2234  
Cooling Degree Days 0 0  
Month to date cooling degree days 0 0  
Year to date cooling degree days 0 0  
Moisture  
Dew Point 35 °F    
Average Humidity 73    
Maximum Humidity 82    
Minimum Humidity 61    
Precipitation  
Precipitation 0.00 in 0.36 in 4.02 in (1995)
Month to date precipitation 0.21 3.17  
Year to date precipitation 0.21 3.17  
Sea Level Pressure  
Sea Level Pressure 30.32 in    
Wind  
Wind Speed 6 mph (ESE)    
Max Wind Speed 18 mph    
Max Gust Speed 28 mph    
Visibility 8 miles    
Events      
T = Trace of Precipitation, MM = Missing Value Source: NWS Daily Summary

Daily Weather History Graph

Daily Weather History Graph

Search for Another Location

Airport:

Trip Planner

Search our weather history database for the weather conditions in past years. The results will help you decide how hot, cold, wet, or windy it might be!

Date:

Astronomy

Jan. 09, 2012 Rise Set
Actual Time 7:49 AM PST 4:59 PM PST
Civil Twilight 7:16 AM PST 5:31 PM PST
Nautical Twilight 6:41 AM PST 6:07 PM PST
Astronomical Twilight 6:06 AM PST 6:41 PM PST
Moon 5:54 PM PST (1/9) 7:51 AM PST (1/9)
Length of Visible Light 10h 14m
Length of Day
9h 10m
Full, 100% of the Moon is Illuminated
Jan 9
Full
Jan 16
Last Quarter
Jan 22
New
Jan 30
First Quarter
Feb 7
Full

Hourly Weather History & Observations

Time (PST) Temp. Windchill Dew Point Humidity Pressure Visibility Wind Dir Wind Speed Gust Speed Precip Events Conditions
12:15 AM 41.0 °F - 33.8 °F 76% 30.34 in 10.0 mi Calm Calm - N/A   Clear
12:35 AM 39.2 °F 35.0 °F 32.0 °F 75% 30.33 in 10.0 mi SE 5.8 mph - N/A   Clear
12:55 AM 39.2 °F 35.0 °F 30.2 °F 70% 30.34 in 10.0 mi SE 5.8 mph - N/A   Clear
1:15 AM 39.2 °F 35.9 °F 32.0 °F 75% 30.35 in 10.0 mi SSE 4.6 mph - N/A   Clear
1:35 AM 39.2 °F 37.0 °F 32.0 °F 75% 30.37 in 9.0 mi South 3.5 mph - N/A   Clear
1:55 AM 39.2 °F 34.2 °F 32.0 °F 75% 30.37 in 10.0 mi ESE 6.9 mph - N/A   Clear
2:15 AM 39.2 °F 34.2 °F 33.8 °F 81% 30.37 in 10.0 mi SE 6.9 mph - N/A   Partly Cloudy
2:35 AM 39.2 °F 35.0 °F 30.2 °F 70% 30.38 in 10.0 mi SSE 5.8 mph - N/A   Partly Cloudy
2:55 AM 39.2 °F 35.0 °F 32.0 °F 75% 30.38 in 10.0 mi SSE 5.8 mph - N/A   Mostly Cloudy
3:15 AM 39.2 °F 34.2 °F 33.8 °F 81% 30.38 in 10.0 mi SE 6.9 mph - N/A   Overcast
3:35 AM 41.0 °F 34.7 °F 33.8 °F 76% 30.37 in 10.0 mi SE 10.4 mph - N/A   Overcast
3:55 AM 39.2 °F 34.2 °F 32.0 °F 75% 30.37 in 10.0 mi SE 6.9 mph - N/A   Overcast
4:15 AM 37.4 °F 32.1 °F 30.2 °F 75% 30.37 in 10.0 mi SSE 6.9 mph - N/A   Partly Cloudy
4:35 AM 37.4 °F 31.4 °F 30.2 °F 75% 30.36 in 10.0 mi SE 8.1 mph - N/A   Clear
4:55 AM 39.2 °F 32.0 °F 32.0 °F 75% 30.36 in 10.0 mi SE 11.5 mph - N/A   Clear
5:15 AM 39.2 °F 32.0 °F 30.2 °F 70% 30.35 in 10.0 mi SE 11.5 mph - N/A   Clear
5:35 AM 39.2 °F 32.5 °F 32.0 °F 75% 30.34 in 10.0 mi ESE 10.4 mph - N/A   Clear
5:55 AM 39.2 °F 35.0 °F 32.0 °F 75% 30.34 in 10.0 mi SSE 5.8 mph - N/A   Clear
6:15 AM 39.2 °F 35.9 °F 30.2 °F 70% 30.34 in 10.0 mi SE 4.6 mph - N/A   Clear
6:35 AM 39.2 °F 35.9 °F 30.2 °F 70% 30.34 in 10.0 mi East 4.6 mph - N/A   Clear
6:55 AM 39.2 °F 35.9 °F 30.2 °F 70% 30.34 in 10.0 mi ESE 4.6 mph - N/A   Clear
7:15 AM 37.4 °F 34.9 °F 30.2 °F 75% 30.33 in 10.0 mi ENE 3.5 mph - N/A   Clear
7:35 AM 39.2 °F - 30.2 °F 70% 30.33 in 10.0 mi Calm Calm - N/A   Clear
7:55 AM 37.4 °F - 30.2 °F 75% 30.33 in 10.0 mi Calm Calm - N/A   Scattered Clouds
8:15 AM 37.4 °F 34.9 °F 30.2 °F 75% 30.33 in 7.0 mi North 3.5 mph - N/A   Scattered Clouds
8:35 AM 39.2 °F 37.0 °F 33.8 °F 81% 30.33 in 5.0 mi North 3.5 mph - N/A   Scattered Clouds
8:55 AM 39.2 °F 37.0 °F 32.0 °F 75% 30.33 in 5.0 mi SSE 3.5 mph - N/A   Scattered Clouds
9:15 AM 39.2 °F 34.2 °F 33.8 °F 81% 30.33 in 9.0 mi SE 6.9 mph - N/A   Clear
9:35 AM 41.0 °F 38.0 °F 33.8 °F 76% 30.33 in 10.0 mi SE 4.6 mph - N/A   Clear
9:55 AM 42.8 °F 38.6 °F 33.8 °F 70% 30.33 in 10.0 mi ESE 6.9 mph - N/A   Clear
10:15 AM 42.8 °F 39.3 °F 35.6 °F 76% 30.33 in 10.0 mi SE 5.8 mph - N/A   Clear
10:35 AM 44.6 °F 42.2 °F 35.6 °F 71% 30.33 in 10.0 mi ESE 4.6 mph - N/A   Clear
10:55 AM 44.6 °F 40.7 °F 35.6 °F 71% 30.32 in 10.0 mi SE 6.9 mph - N/A   Clear
11:15 AM 48.2 °F - 35.6 °F 62% 30.30 in 10.0 mi ESE 5.8 mph - N/A   Clear
11:35 AM 48.2 °F - 37.4 °F 66% 30.29 in 10.0 mi ESE 5.8 mph - N/A   Clear
11:55 AM 50.0 °F - 37.4 °F 62% 30.28 in 10.0 mi ESE 5.8 mph - N/A   Clear
12:15 PM 50.0 °F - 37.4 °F 62% 30.28 in 10.0 mi West 3.5 mph - N/A   Clear
12:35 PM 48.2 °F - 39.2 °F 71% 30.27 in 3.0 mi WNW 6.9 mph - N/A   Clear
12:55 PM 48.2 °F - 37.4 °F 66% 30.27 in 6.0 mi WNW 5.8 mph - N/A   Clear
1:15 PM 48.2 °F - 39.2 °F 71% 30.26 in 5.0 mi Calm Calm - N/A   Clear
1:35 PM 50.0 °F - 37.4 °F 62% 30.26 in 5.0 mi NE 3.5 mph - N/A   Partly Cloudy
1:55 PM 50.0 °F - 37.4 °F 62% 30.25 in 8.0 mi Calm Calm - N/A   Partly Cloudy
2:15 PM 48.2 °F - 37.4 °F 66% 30.26 in 5.0 mi West 4.6 mph - N/A   Clear
2:35 PM 48.2 °F - 39.2 °F 71% 30.27 in 4.0 mi NW 9.2 mph - N/A   Partly Cloudy
2:55 PM 48.2 °F - 39.2 °F 71% 30.27 in 6.0 mi NW 5.8 mph - N/A   Clear
3:15 PM 48.2 °F - 39.2 °F 71% 30.27 in 8.0 mi North 4.6 mph - N/A   Clear
3:35 PM 48.2 °F - 39.2 °F 71% 30.28 in 5.0 mi NW 6.9 mph - N/A   Scattered Clouds
3:55 PM 48.2 °F - 41.0 °F 76% 30.28 in 5.0 mi North 5.8 mph - N/A   Scattered Clouds
4:15 PM 48.2 °F - 39.2 °F 71% 30.28 in 5.0 mi NNW 3.5 mph - N/A   Overcast
4:35 PM 48.2 °F - 39.2 °F 71% 30.27 in 5.0 mi NNE 4.6 mph - N/A   Overcast
4:55 PM 48.2 °F - 39.2 °F 71% 30.27 in 6.0 mi North 4.6 mph - N/A   Overcast
5:15 PM 48.2 °F - 39.2 °F 71% 30.27 in 7.0 mi Calm Calm - N/A   Overcast
5:35 PM 48.2 °F - 41.0 °F 76% 30.28 in 3.0 mi NW 3.5 mph - N/A   Overcast
5:55 PM 48.2 °F - 41.0 °F 76% 30.28 in 2.5 mi Calm Calm - N/A   Overcast
6:15 PM 46.4 °F - 41.0 °F 81% 30.27 in 1.8 mi Calm Calm - N/A   Overcast
6:35 PM 46.4 °F - 41.0 °F 81% 30.28 in 2.5 mi Calm Calm - N/A   Overcast
6:55 PM 46.4 °F - 41.0 °F 81% 30.28 in 3.0 mi Calm Calm - N/A   Overcast
7:15 PM 46.4 °F - 41.0 °F 81% 30.27 in 1.5 mi Calm Calm - N/A   Overcast
7:35 PM 46.4 °F - 41.0 °F 81% 30.28 in 1.0 mi Calm Calm - N/A   Overcast
7:55 PM 46.4 °F - 41.0 °F 81% 30.28 in 1.5 mi Calm Calm - N/A   Overcast
8:15 PM 46.4 °F 45.2 °F 41.0 °F 81% 30.28 in 1.2 mi North 3.5 mph - N/A   Overcast
8:35 PM 46.4 °F 40.7 °F 41.0 °F 81% 30.29 in 3.0 mi North 12.7 mph - N/A   Overcast
8:55 PM 46.4 °F 40.1 °F 39.2 °F 76% 30.31 in 8.0 mi NNW 15.0 mph - N/A   Overcast
9:15 PM 46.4 °F 39.8 °F 39.2 °F 76% 30.31 in 8.0 mi North 16.1 mph 25.3 mph N/A   Overcast
9:35 PM 46.4 °F 38.3 °F 39.2 °F 76% 30.31 in 5.0 mi North 23.0 mph 29.9 mph N/A   Overcast
9:55 PM 46.4 °F 39.2 °F 39.2 °F 76% 30.32 in 3.0 mi North 18.4 mph 25.3 mph N/A   Overcast
10:15 PM 46.4 °F 39.5 °F 39.2 °F 76% 30.32 in 8.0 mi North 17.3 mph 24.2 mph N/A   Overcast
10:35 PM 46.4 °F 39.5 °F 39.2 °F 76% 30.34 in 10.0 mi North 17.3 mph 25.3 mph N/A   Overcast
10:55 PM 46.4 °F 39.2 °F 39.2 °F 76% 30.35 in 10.0 mi North 18.4 mph 27.6 mph N/A   Overcast
11:15 PM 46.4 °F 40.1 °F 37.4 °F 71% 30.34 in 8.0 mi North 15.0 mph 24.2 mph N/A   Overcast
11:35 PM 46.4 °F 41.9 °F 37.4 °F 71% 30.34 in 10.0 mi NNE 9.2 mph - N/A   Mostly Cloudy
11:55 PM 46.4 °F 41.9 °F 37.4 °F 71% 30.35 in 10.0 mi NNW 9.2 mph - N/A   Overcast